FW2265 Houston TX US current weather conditions

sailwx.info

Wind from 067

Air temperature 10.6° C
Dewpoint 9.3° C

Last reported at 2019-Dec-13 02:08 UTC.
Time now 2019-Dec-13 03:09 UTC

Location: N 29°35' W 095°07'.
View on Google Maps.

See reports from other nearby stations

  
Tides and Currents Weather Stations Pressure Air Temp Water Temp Dewpoint Dewpoint Depression Visibility Wind Speed Wind Dir Waves Ship Positions
date/time (UTC)wind fromknots sea level pressurealtimeterstation pressurevisibilityair tempwater tempwave heightnotes
2019-Dec-13 02:08 067 10.6
2019-Dec-13 01:59 067 10.6
2019-Dec-13 01:49 067 10.6
2019-Dec-13 01:39 067 11.1
2019-Dec-13 01:29 067 11.1
2019-Dec-13 01:20 067 11.1
2019-Dec-13 01:10 067 11.1
2019-Dec-13 01:01 067 11.7
2019-Dec-13 00:51 067 11.7
2019-Dec-13 00:42 067 11.7
2019-Dec-13 00:33 067 12.2
2019-Dec-13 00:23 067 12.2
2019-Dec-13 00:14 067 12.8
2019-Dec-13 00:04 067 12.8
2019-Dec-12 23:54 067 13.3
2019-Dec-12 23:45 067 13.3
2019-Dec-12 23:35 067 13.9
2019-Dec-12 23:25 067 14.4
2019-Dec-12 23:16 067 15.0
2019-Dec-12 23:06 067 15.0
2019-Dec-12 22:57 067 15.6
2019-Dec-12 22:47 090 15.6
2019-Dec-12 22:38 090 15.6
2019-Dec-12 22:28 052 15.6
2019-Dec-12 22:19 090 16.1
2019-Dec-12 22:10 090 16.1
2019-Dec-12 22:00 023 0 16.1
2019-Dec-12 21:51 112 1 16.1
2019-Dec-12 21:41 107 15.6
2019-Dec-12 21:31 053 0 16.1
2019-Dec-12 21:21 121 16.1
2019-Dec-12 21:11 112 16.1
2019-Dec-12 21:01 135 16.1
2019-Dec-12 20:52 090 16.1
2019-Dec-12 20:42 166 16.7
2019-Dec-12 20:33 107 16.7
2019-Dec-12 20:23 078 0 16.7
2019-Dec-12 20:14 148 16.7
2019-Dec-12 20:04 105 1 16.7
2019-Dec-12 19:55 145 0 16.7
2019-Dec-12 19:46 112 16.7
2019-Dec-12 19:36 069 0 16.1
2019-Dec-12 19:27 116 0 16.1
2019-Dec-12 19:18 090 0 15.6
2019-Dec-12 19:08 225 0 15.6
2019-Dec-12 18:59 139 15.0
2019-Dec-12 18:49 084 0 15.6
2019-Dec-12 18:39 076 1 15.6
2019-Dec-12 18:30 142 15.0
2019-Dec-12 18:21 091 1 15.0
2019-Dec-12 18:11 060 0 15.0
2019-Dec-12 18:02 119 14.4
2019-Dec-12 17:53 125 0 13.9
2019-Dec-12 17:43 147 13.9
2019-Dec-12 17:33 103 0 13.3
2019-Dec-12 17:24 077 1 13.3
2019-Dec-12 17:14 127 0 13.3
2019-Dec-12 17:04 080 0 13.3
2019-Dec-12 16:54 108 2 12.8
2019-Dec-12 16:44 127 0 12.8
2019-Dec-12 16:34 051 0 13.3
2019-Dec-12 16:24 074 2 12.8
2019-Dec-12 16:14 090 12.2
2019-Dec-12 16:04 128 0 12.2
2019-Dec-12 15:54 103 0 11.7
2019-Dec-12 15:44 032 1 11.1
2019-Dec-12 15:34 097 1 11.1
2019-Dec-12 15:24 097 0 10.6
2019-Dec-12 15:15 083 2 10.6
2019-Dec-12 15:05 062 1 10.0
2019-Dec-12 14:55 102 1 9.4
2019-Dec-12 14:46 082 1 9.4
2019-Dec-12 14:37 087 1 9.4
2019-Dec-12 14:27 127 1 8.9
2019-Dec-12 14:17 067 8.9
2019-Dec-12 14:07 045 8.9
2019-Dec-12 13:57 090 8.3
2019-Dec-12 13:48 153 7.8
2019-Dec-12 13:38 062 0 7.8
2019-Dec-12 13:29 085 0 7.8
2019-Dec-12 13:20 087 1 7.8
2019-Dec-12 13:10 057 7.8
2019-Dec-12 13:01 112 7.8
2019-Dec-12 12:51 112 7.8
2019-Dec-12 12:41 117 0 7.8
2019-Dec-12 12:32 091 7.8
2019-Dec-12 12:22 090 7.8
2019-Dec-12 12:13 067 7.8
2019-Dec-12 12:04 112 8.3
2019-Dec-12 11:54 067 8.3
2019-Dec-12 11:45 067 8.3
2019-Dec-12 11:36 139 8.3
2019-Dec-12 11:26 135 8.3
2019-Dec-12 11:17 108 1 8.3
2019-Dec-12 11:07 089 8.3
2019-Dec-12 10:57 113 0 8.3
2019-Dec-12 10:48 107 0 8.3
2019-Dec-12 10:38 084 0 8.3
2019-Dec-12 10:29 076 8.3
2019-Dec-12 10:19 090 8.3
2019-Dec-12 10:09 087 0 8.3
2019-Dec-12 10:00 090 0 8.3
2019-Dec-12 09:50 078 0 7.8
2019-Dec-12 09:41 090 7.8
2019-Dec-12 09:32 067 7.8
2019-Dec-12 09:22 067 7.8
2019-Dec-12 09:13 067 7.8
2019-Dec-12 09:04 045 7.2
2019-Dec-12 08:54 045 7.2
2019-Dec-12 08:44 045 7.2
2019-Dec-12 08:34 045 6.7
2019-Dec-12 08:24 045 0 6.1
2019-Dec-12 08:15 045 5.6
2019-Dec-12 08:06 112 5.6
2019-Dec-12 07:56 112 5.6
2019-Dec-12 07:46 112 5.6
2019-Dec-12 07:37 112 6.1
2019-Dec-12 07:28 112 6.7
2019-Dec-12 07:19 112 7.2
2019-Dec-12 07:09 112 7.8
2019-Dec-12 07:00 112 7.8
2019-Dec-12 06:51 112 7.8
2019-Dec-12 06:42 090 8.3
2019-Dec-12 06:32 067 8.3
2019-Dec-12 06:23 045 8.3
2019-Dec-12 06:13 067 8.3
2019-Dec-12 06:03 090 8.3
2019-Dec-12 05:53 045 8.3
2019-Dec-12 05:43 067 0 7.8
2019-Dec-12 05:33 067 7.8
2019-Dec-12 05:23 067 8.3
2019-Dec-12 05:14 067 8.3
2019-Dec-12 05:04 067 8.9
2019-Dec-12 04:54 067 8.9
2019-Dec-12 04:44 090 8.9
2019-Dec-12 04:35 063 0 8.9
2019-Dec-12 04:26 051 0 8.9
2019-Dec-12 04:16 033 9.4
2019-Dec-12 04:06 046 8.9
2019-Dec-12 03:57 086 8.3
2019-Dec-12 03:47 090 8.3
2019-Dec-12 03:38 112 8.3
2019-Dec-12 03:28 112 8.9
2019-Dec-12 03:18 112 9.4
2019-Dec-12 03:09 067 0 9.4
2019-Dec-12 02:59 067 9.4
2019-Dec-12 02:49 044 9.4
2019-Dec-12 02:40 064 9.4
2019-Dec-12 02:31 090 10.0
2019-Dec-12 02:21 344 10.0
2019-Dec-12 02:12 157 10.0
2019-Dec-12 02:03 045 10.6
2019-Dec-12 01:53 073 10.6
2019-Dec-12 01:44 098 10.6
2019-Dec-12 01:34 052 10.6
2019-Dec-12 01:25 029 0 11.1
2019-Dec-12 01:16 057 11.1
2019-Dec-12 01:06 090 11.1
2019-Dec-12 00:56 063 11.1
2019-Dec-12 00:47 053 11.1
2019-Dec-12 00:37 089 11.1
2019-Dec-12 00:27 045 11.7
2019-Dec-12 00:18 067 11.7
2019-Dec-12 00:08 056 11.7
2019-Dec-11 23:58 067 11.7
2019-Dec-11 23:48 090 0 11.7
2019-Dec-11 23:38 067 12.2
2019-Dec-11 23:29 045 12.2
2019-Dec-11 23:19 112 12.8
2019-Dec-11 23:10 090 12.8
2019-Dec-11 23:00 112 13.3
2019-Dec-11 22:51 107 13.3
2019-Dec-11 22:41 089 0 13.9
2019-Dec-11 22:31 090 0 14.4
2019-Dec-11 22:21 119 0 14.4
2019-Dec-11 22:12 082 0 14.4
2019-Dec-11 22:03 060 3 14.4
2019-Dec-11 21:53 360 14.4
2019-Dec-11 21:43 097 1 14.4
2019-Dec-11 21:33 102 0 14.4
2019-Dec-11 21:24 104 1 14.4
2019-Dec-11 21:14 100 14.4
2019-Dec-11 21:04 054 14.4
2019-Dec-11 20:54 062 0 14.4
2019-Dec-11 20:44 068 1 15.0
2019-Dec-11 20:35 076 0 15.0
2019-Dec-11 20:26 022 15.0
2019-Dec-11 20:16 049 15.0
2019-Dec-11 20:06 099 15.0
2019-Dec-11 19:56 051 0 14.4
2019-Dec-11 19:47 058 0 14.4
2019-Dec-11 19:37 091 1 14.4
2019-Dec-11 19:28 082 1 13.9
2019-Dec-11 19:18 005 0 13.9
2019-Dec-11 19:09 090 0 13.9
2019-Dec-11 18:59 050 0 13.3
2019-Dec-11 18:50 354 13.3
2019-Dec-11 18:40 339 0 12.8
2019-Dec-11 18:31 014 1 12.2
2019-Dec-11 18:21 064 1 12.2
2019-Dec-11 18:12 074 1 12.2
2019-Dec-11 18:02 038 0 11.7
2019-Dec-11 17:53 073 11.1
2019-Dec-11 17:43 077 11.1
2019-Dec-11 17:33 082 0 11.1
2019-Dec-11 17:24 063 1 11.1
2019-Dec-11 17:14 233 10.6
2019-Dec-11 17:05 187 10.6
2019-Dec-11 16:55 343 10.6
2019-Dec-11 16:46 205 10.6
2019-Dec-11 16:36 046 1 10.0
2019-Dec-11 16:26 037 0 10.0
2019-Dec-11 16:17 002 10.0
2019-Dec-11 16:08 292 0 9.4
2019-Dec-11 15:58 135 9.4
2019-Dec-11 15:49 055 0 8.9
2019-Dec-11 15:40 045 0 8.9
2019-Dec-11 15:30 003 8.3
2019-Dec-11 15:21 050 0 7.8
2019-Dec-11 15:12 032 7.2
2019-Dec-11 15:02 264 0 7.2
2019-Dec-11 14:52 071 6.7
2019-Dec-11 14:42 099 0 6.7
2019-Dec-11 14:32 119 6.7
2019-Dec-11 14:22 039 6.7
2019-Dec-11 14:12 071 0 6.7
2019-Dec-11 14:02 046 0 6.1
2019-Dec-11 13:52 067 6.1
2019-Dec-11 13:43 032 6.1
2019-Dec-11 13:33 045 6.1
2019-Dec-11 13:23 076 0 6.7
2019-Dec-11 13:14 045 6.7
2019-Dec-11 13:05 073 0 6.7
2019-Dec-11 12:55 090 6.7
2019-Dec-11 12:45 204 6.7
2019-Dec-11 12:36 292 6.7
2019-Dec-11 12:26 028 6.7
2019-Dec-11 12:16 030 0 6.7
2019-Dec-11 12:06 045 6.7
2019-Dec-11 11:57 045 6.7
2019-Dec-11 11:47 070 1 6.7
2019-Dec-11 11:37 359 6.7
2019-Dec-11 11:28 028 1 6.7
2019-Dec-11 11:19 080 0 7.2
2019-Dec-11 11:09 067 7.2
2019-Dec-11 11:00 077 7.2
2019-Dec-11 10:50 067 7.2
2019-Dec-11 10:41 089 0 7.2
2019-Dec-11 10:31 090 7.2
2019-Dec-11 10:22 038 1 7.2
2019-Dec-11 10:12 109 7.2
2019-Dec-11 10:02 090 7.2
2019-Dec-11 09:52 067 0 7.2
2019-Dec-11 09:42 120 7.2
2019-Dec-11 09:33 072 0 7.2
2019-Dec-11 09:23 058 7.2
2019-Dec-11 09:13 139 7.2
2019-Dec-11 09:04 176 7.2
2019-Dec-11 08:54 057 0 7.2
2019-Dec-11 08:44 051 1 7.2
2019-Dec-11 08:34 226 7.2
2019-Dec-11 08:25 069 7.8
2019-Dec-11 08:06 032 7.8
2019-Dec-11 07:56 021 0 7.8
2019-Dec-11 07:47 351 0 7.8
2019-Dec-11 07:38 045 7.8
2019-Dec-11 07:28 060 1 7.8
2019-Dec-11 07:09 045 7.8
2019-Dec-11 07:00 331 7.8
2019-Dec-11 06:50 077 0 7.8
2019-Dec-11 06:41 078 1 7.8
2019-Dec-11 06:32 083 0 7.8
2019-Dec-11 06:23 045 7.8
2019-Dec-11 06:13 056 2 8.3
2019-Dec-11 06:03 045 3 8.3
2019-Dec-11 05:44 057 0 8.3
2019-Dec-11 05:34 051 2 8.3
2019-Dec-11 05:15 025 1 8.3
2019-Dec-11 05:05 042 0 8.9
2019-Dec-11 04:55 001 1 8.9
2019-Dec-11 04:46 246 8.9
2019-Dec-11 04:36 018 8.9
2019-Dec-11 04:16 093 0 8.9
2019-Dec-11 04:06 097 0 8.9
2019-Dec-11 03:57 011 1 8.9
2019-Dec-11 03:47 050 1 8.9
2019-Dec-11 03:38 067 8.9
2019-Dec-11 03:28 047 9.4
2019-Dec-11 03:18 056 0 9.4